Theta_e
328 325 322 318 316 317 314 307 300 297 292 291 287 291 294 299 297 298 298 298 300 302 302 304 303 305 303 300 300 300 300 300 299 294 292 299 312 327 327 332 336 337 337 339 341 342 343 345 345 344 344 340 340 342 344 346 345 346 346 345 345 344 342 341 338 338 339 339 340 340 340 337 335 335 336 336 337 336 335 336 336 335 336 336 336 336 336 336 336 337 339 338 338 336 337 337 337
325 322 318 317 317 316 310 301 294 288 290 289 291 292 293 297 298 295 297 298 299 305 305 307 309 310 310 308 307 305 301 308 299 307 305 313 325 327 330 334 337 336 338 339 341 340 339 342 345 345 344 342 339 340 341 345 345 346 346 345 345 344 343 341 338 339 340 340 341 343 343 340 337 336 337 335 337 337 337 336 336 336 334 334 335 334 335 336 338 338 336 335 336 337 338 338 338
323 318 318 318 315 311 306 301 298 285 287 288 288 292 296 298 296 297 295 298 301 304 307 308 307 307 308 308 306 301 296 311 311 311 313 323 323 327 335 336 337 338 340 340 339 339 338 340 345 345 343 342 339 340 341 341 345 346 345 345 345 344 343 340 340 339 338 339 341 340 340 339 338 333 336 335 335 334 334 336 337 335 334 334 335 334 334 337 336 335 335 335 337 337 338 337 338
319 317 316 314 313 308 299 295 289 287 288 286 287 293 295 297 296 296 297 299 303 304 304 305 307 306 307 303 306 309 304 309 312 312 315 322 319 329 336 338 338 340 342 340 338 337 337 341 345 345 343 341 340 341 341 341 344 346 345 345 345 344 344 342 339 338 339 339 339 339 339 339 339 336 335 335 335 336 337 336 334 332 333 333 333 333 333 334 334 334 335 335 337 337 337 337 339
318 318 318 311 309 306 299 293 289 287 290 288 294 293 295 296 297 296 302 302 301 302 302 304 308 311 310 308 309 307 305 310 314 313 313 318 323 336 337 338 339 340 340 339 338 336 335 342 343 344 342 342 340 342 342 341 343 345 345 344 344 344 343 343 340 339 338 339 339 339 338 338 338 335 338 337 337 335 333 335 335 334 335 335 333 333 334 334 334 334 334 336 338 337 337 338 337
318 316 317 312 308 308 301 297 295 294 292 292 293 295 294 297 299 299 302 302 305 303 302 302 307 309 310 312 312 309 310 305 311 315 317 321 331 337 338 338 339 339 340 338 336 335 335 341 342 343 342 341 340 340 341 342 342 345 345 345 344 344 343 342 341 340 339 338 338 337 338 338 336 333 334 336 335 335 335 335 335 334 333 333 333 334 334 334 334 334 334 335 337 337 337 337 336
316 312 311 309 306 305 298 292 291 292 296 295 298 296 297 298 301 303 304 305 305 303 301 307 307 307 307 308 311 314 315 319 315 317 321 323 334 337 338 338 338 338 338 337 335 335 335 341 342 343 343 340 341 340 341 343 344 345 345 345 344 343 343 342 340 339 338 338 338 338 338 338 338 337 336 333 334 336 334 334 333 332 332 333 334 334 334 334 333 334 335 335 337 337 337 337 336
317 312 307 302 299 297 295 293 293 291 298 295 298 298 298 301 301 304 304 301 303 302 305 305 303 303 303 311 306 314 316 319 318 319 322 332 335 336 338 338 336 336 337 335 334 334 341 340 341 342 343 340 341 339 340 342 344 345 345 345 345 343 343 342 340 339 339 340 339 338 338 337 338 337 337 337 336 333 332 333 333 334 334 334 333 333 333 333 333 333 334 335 336 336 336 336 336
313 310 306 301 298 294 290 294 295 296 297 298 299 299 309 303 303 303 302 302 302 302 303 306 302 303 301 308 306 311 314 319 319 322 329 334 335 336 337 336 335 335 335 334 333 334 336 339 340 341 342 341 342 343 339 341 344 345 345 345 345 343 343 342 341 339 340 340 338 338 337 337 337 337 337 336 334 333 334 335 335 334 334 332 333 333 334 333 333 334 334 334 335 335 335 335 334
307 308 302 299 296 294 290 293 296 299 300 301 299 302 302 302 303 303 303 302 303 302 302 302 302 303 305 306 307 313 315 317 323 326 329 333 336 336 335 335 334 335 335 332 332 335 334 342 339 339 340 340 343 345 342 341 343 344 345 345 345 344 343 342 341 339 340 340 338 337 337 337 337 336 336 336 335 333 334 335 334 334 334 334 334 334 334 333 333 333 334 334 335 335 335 334 333
304 304 302 295 291 290 293 294 293 297 298 300 299 299 300 303 304 302 301 303 302 302 303 303 305 305 308 307 306 312 316 319 325 326 331 334 335 335 334 333 334 335 334 331 331 334 334 336 341 338 338 339 342 344 344 343 343 344 345 345 345 344 342 342 341 340 340 340 340 337 338 337 337 337 336 336 339 336 335 334 333 334 334 334 334 334 333 333 333 333 334 334 334 334 334 334 333
302 300 298 291 292 293 292 293 295 298 300 297 302 301 300 302 302 303 302 303 303 302 302 304 304 309 308 305 307 313 315 320 321 326 331 334 334 331 331 330 332 333 332 330 330 332 332 334 337 340 336 336 339 341 342 343 345 344 345 345 344 345 343 342 342 341 340 340 340 338 338 338 337 336 339 340 338 339 335 334 334 334 334 334 333 333 333 333 333 333 333 333 333 334 333 333 332
303 297 296 294 293 294 293 294 293 297 295 297 301 303 299 302 304 302 301 302 300 303 302 303 307 309 303 307 308 311 316 318 319 328 331 333 332 330 329 328 331 331 331 328 330 330 330 331 333 336 335 335 336 338 339 341 343 344 344 344 344 344 344 343 343 342 342 341 340 340 339 338 338 339 341 340 338 339 336 338 335 334 334 334 333 333 333 333 333 333 333 333 333 333 332 332 332
303 299 299 295 291 291 293 294 293 296 293 299 297 299 301 301 301 301 301 302 302 301 303 304 312 309 307 307 306 309 312 315 319 327 330 329 329 329 329 329 329 330 328 328 329 330 329 330 331 331 332 331 332 336 336 338 340 342 342 343 343 344 344 343 342 342 342 341 340 339 339 339 339 340 339 338 337 337 337 336 336 335 334 335 333 333 333 333 333 333 333 333 332 332 332 331 332
307 299 294 293 291 291 292 297 296 293 297 298 303 301 301 303 300 299 305 301 302 302 307 309 311 305 301 304 299 308 315 317 323 325 326 327 327 327 327 328 328 326 326 328 328 328 329 328 329 329 329 328 329 332 333 336 336 338 339 340 341 341 342 340 339 339 339 338 338 337 338 338 337 337 336 335 335 335 335 333 333 336 334 335 333 333 333 333 333 333 333 332 332 332 332 332 331
305 298 296 296 291 291 294 294 292 294 297 298 301 300 301 303 300 303 303 303 304 306 307 307 313 305 305 305 310 309 316 319 322 324 325 325 324 323 324 325 326 326 326 327 327 328 329 328 327 328 328 328 329 331 331 332 334 334 335 337 338 338 338 337 336 335 334 333 333 334 334 334 334 332 334 331 332 333 334 328 330 334 336 334 334 333 333 333 333 333 333 332 332 332 332 332 332
302 302 296 288 292 292 293 296 296 295 297 298 299 301 302 300 303 303 303 305 306 306 310 312 311 315 307 306 309 315 317 321 321 323 324 324 324 324 324 324 327 327 328 327 327 327 327 328 327 327 327 328 329 331 331 331 332 332 333 333 334 334 335 335 333 330 329 328 328 329 330 330 327 327 328 325 330 327 326 326 327 332 336 336 335 334 333 333 333 333 333 332 333 332 334 333 330
305 299 291 290 289 293 295 298 298 300 299 302 302 300 300 300 302 305 306 304 301 304 310 308 313 313 314 315 315 317 319 321 322 323 322 322 323 323 325 326 326 326 328 328 326 326 327 327 327 327 326 327 328 330 331 330 330 332 335 336 335 335 333 332 333 334 335 329 326 329 328 327 325 323 324 330 324 325 324 325 325 329 333 334 336 335 334 334 333 333 333 333 333 332 332 320 318
301 291 292 293 291 296 300 299 300 301 301 302 302 300 301 301 302 304 303 302 301 306 305 306 310 312 314 315 316 318 319 319 321 323 321 321 322 323 325 325 326 327 327 328 328 326 326 327 327 327 326 327 327 329 330 330 330 333 335 336 335 333 335 337 337 335 335 333 329 330 328 325 324 322 323 324 323 323 324 323 325 328 330 331 333 335 335 335 335 334 334 333 333 332 324 318 318
299 297 293 293 295 297 299 300 301 301 303 303 302 302 301 303 302 305 304 301 300 302 300 305 307 309 311 314 314 316 318 319 320 321 320 321 321 324 324 325 325 326 328 328 328 327 325 326 326 327 327 327 327 329 331 333 333 335 336 335 335 336 336 336 338 337 336 334 330 331 329 326 325 323 327 329 330 324 323 321 322 324 326 327 328 330 332 332 334 334 333 333 332 326 323 323 320
299 297 294 296 295 297 300 300 301 300 302 302 301 301 303 304 302 304 302 302 301 300 300 307 307 307 312 312 314 315 317 317 318 319 320 320 320 322 324 326 326 327 328 328 327 326 326 326 326 326 326 326 327 328 331 333 334 335 336 336 335 335 336 336 338 337 336 335 333 331 331 330 327 324 321 321 321 323 323 323 323 323 324 324 323 324 323 322 325 320 321 322 322 321 320 322 323
300 300 298 296 296 299 300 301 301 300 300 299 298 303 304 304 304 301 302 300 298 301 303 305 307 309 314 315 315 314 315 317 318 318 319 320 320 320 321 323 322 324 325 325 326 326 326 326 326 327 326 326 327 328 330 332 333 333 335 336 336 336 336 336 336 337 337 335 334 331 331 331 329 326 321 322 324 324 324 323 323 324 323 323 323 323 323 324 323 320 319 322 322 320 320 321 322
297 296 297 297 298 299 301 301 300 300 300 300 301 303 303 301 302 300 301 302 302 302 305 303 305 312 317 317 316 315 315 316 317 318 319 319 319 320 321 322 322 322 323 325 325 326 326 326 326 326 326 326 326 327 329 331 332 333 334 335 335 336 336 336 335 336 337 336 335 333 331 330 329 328 326 324 325 325 324 324 324 323 323 324 324 323 323 324 323 323 323 322 323 321 319 318 317
299 297 296 299 299 301 299 302 299 298 301 302 301 301 302 301 301 301 301 302 305 304 303 304 303 315 317 316 316 317 316 316 317 320 321 321 321 321 321 321 323 321 320 323 324 325 325 326 326 325 326 326 325 326 328 330 332 332 333 333 334 334 335 335 335 336 336 336 335 334 331 331 330 328 328 326 326 326 324 324 324 323 323 324 325 324 324 325 324 325 324 324 322 321 320 320 319
298 297 296 299 298 299 299 298 299 298 299 298 299 300 301 300 300 300 301 304 306 305 305 311 312 314 313 315 316 316 316 316 316 318 318 320 321 320 318 319 319 319 321 322 324 325 326 326 326 325 325 325 325 326 326 328 330 331 332 333 333 330 334 335 335 335 335 335 335 334 332 331 330 329 328 327 326 326 325 324 323 323 323 323 324 324 324 323 323 323 323 323 323 322 321 320 320
298 299 296 297 299 298 298 298 297 298 298 299 300 297 299 300 302 301 304 305 306 304 307 310 311 312 314 315 316 316 316 317 317 316 318 319 317 317 318 319 319 319 321 322 322 324 325 326 326 325 325 325 325 325 326 326 328 330 331 331 332 331 333 334 335 334 335 334 334 334 333 332 331 330 329 328 327 326 326 325 324 323 323 324 324 323 324 323 323 322 322 322 322 322 321 321 320
298 298 299 300 300 297 298 300 297 296 299 297 299 296 297 299 300 298 301 305 307 306 304 308 311 312 314 315 316 316 316 317 317 319 316 315 317 317 318 317 318 320 321 321 322 323 324 324 325 326 326 324 325 324 325 325 326 328 329 331 331 331 332 333 333 334 334 334 334 334 333 332 332 331 330 329 328 327 326 325 324 324 323 323 323 323 324 324 323 322 322 322 321 321 321 321 319
298 299 297 298 295 296 296 296 297 296 299 296 299 298 298 296 297 300 302 303 303 304 303 303 308 310 313 314 315 316 316 318 318 315 317 316 317 318 318 318 319 320 320 321 322 323 322 323 325 326 326 325 324 324 324 324 324 325 327 329 330 330 331 331 332 333 331 333 334 333 333 333 331 332 331 330 329 328 327 326 325 324 323 323 323 322 322 323 322 322 322 322 322 321 320 320 319
298 297 297 293 295 297 295 298 298 297 298 297 298 297 296 296 296 301 301 301 303 303 302 302 305 308 310 312 314 314 316 317 316 316 317 318 319 319 319 320 320 319 321 322 322 320 321 323 324 325 326 326 325 324 324 324 324 324 325 327 328 329 330 330 330 331 332 332 333 334 333 333 331 331 331 330 328 329 328 327 326 325 325 324 324 322 322 322 321 320 320 319 319 318 317 317 317
298 296 294 295 294 293 296 296 295 297 299 297 298 290 293 296 301 302 300 301 301 301 302 304 303 303 305 307 311 314 315 315 314 316 318 318 319 319 319 320 320 320 320 321 320 320 322 323 323 324 324 325 325 325 325 324 324 324 324 325 326 328 329 329 329 330 331 331 332 333 333 333 332 331 331 330 330 329 328 328 327 327 326 326 324 323 322 321 320 319 318 318 316 315 315 316 315
296 294 294 289 289 287 292 295 295 297 297 297 298 291 292 293 294 298 297 298 300 301 303 303 303 303 303 303 304 307 310 314 316 317 318 318 319 319 319 320 320 320 320 319 319 321 321 322 323 323 323 324 324 325 324 325 324 324 324 324 325 325 327 328 328 329 330 330 331 331 332 332 331 332 331 330 329 329 328 328 328 328 327 325 324 324 323 322 321 320 319 317 317 316 316 316 316
290 291 287 285 288 286 289 293 295 297 299 297 298 292 294 296 298 298 298 297 299 300 302 302 302 303 303 303 303 304 305 306 308 313 317 318 318 319 319 320 320 320 320 321 320 320 320 321 321 322 322 322 323 324 325 325 325 324 324 323 325 325 325 327 328 328 329 330 330 330 331 331 331 331 331 331 329 329 328 328 328 328 327 326 324 324 322 322 321 321 320 319 317 317 317 317 316
284 288 282 281 283 288 290 293 294 299 298 296 299 291 286 292 295 297 297 298 298 299 299 299 300 300 301 303 304 305 305 305 305 306 308 312 317 319 320 320 320 320 321 320 320 319 319 320 320 321 321 322 323 323 323 324 325 324 324 324 324 324 325 325 326 327 328 329 329 329 330 330 330 330 331 330 330 329 328 328 328 328 327 326 324 324 322 322 322 321 321 320 320 319 319 318 318
281 285 287 284 286 285 286 289 290 293 295 294 294 294 294 295 296 297 295 295 295 296 298 298 298 299 300 301 302 303 304 304 305 306 306 307 310 313 318 319 320 320 320 320 321 320 319 319 320 320 321 322 322 323 322 323 324 324 323 323 321 324 324 325 325 324 325 327 328 329 329 329 328 329 330 330 330 329 329 328 328 328 327 326 324 324 323 323 322 322 321 322 320 319 319 319 319
285 286 284 286 285 286 286 284 290 292 293 293 292 292 293 297 300 299 299 295 295 295 297 298 298 298 299 299 300 301 302 303 305 307 307 308 307 308 310 314 317 318 320 320 320 320 320 319 319 319 319 321 321 322 321 322 322 322 320 321 320 321 322 323 324 323 324 324 326 327 328 328 328 328 329 329 329 329 328 328 328 327 327 325 324 323 323 322 321 322 321 322 322 321 320 321 320
288 290 287 285 285 285 286 289 290 292 290 290 291 292 293 295 297 298 298 296 295 296 296 297 298 298 299 299 300 300 301 302 304 306 306 306 306 307 307 309 312 315 318 319 319 319 319 319 319 319 319 320 321 320 320 320 319 319 319 317 318 319 321 320 321 323 323 323 324 324 325 326 327 327 328 329 329 328 328 328 327 328 327 325 324 323 323 322 321 320 321 321 321 321 320 320 321
288 288 287 285 285 286 286 287 291 292 291 289 291 292 291 293 295 297 297 295 293 293 294 296 297 298 299 299 299 300 300 302 304 304 304 304 305 306 307 307 308 310 314 317 318 318 319 320 318 318 319 319 320 319 319 319 318 318 318 319 319 320 320 320 320 321 322 323 322 323 323 324 325 325 326 327 328 325 327 328 328 327 327 325 324 324 324 324 323 322 321 321 319 320 321 321 321
288 286 285 287 284 286 287 290 290 290 291 285 286 287 289 291 294 296 297 293 293 293 294 294 296 297 298 298 299 300 301 301 301 302 304 302 303 304 304 305 306 307 310 313 316 318 319 319 318 319 318 319 320 320 320 320 320 320 320 320 320 320 319 318 320 321 321 321 321 321 322 322 323 323 323 325 326 327 327 327 327 327 327 326 325 325 324 322 323 323 322 320 321 319 319 321 321
287 287 284 283 285 284 287 289 290 291 289 287 286 289 291 292 293 295 294 295 295 295 296 297 297 297 297 298 299 300 300 301 302 302 303 304 304 303 302 304 306 308 308 312 315 316 317 318 319 319 319 319 319 320 320 320 321 321 321 319 320 318 319 321 320 320 320 321 321 321 321 321 322 322 322 322 323 325 326 327 327 327 327 326 324 323 323 323 323 323 322 321 320 320 319 321 321
292 286 283 284 282 283 279 283 288 291 291 284 285 287 289 291 292 293 295 296 296 296 296 297 298 298 298 298 300 300 300 301 301 302 303 303 303 303 300 301 303 306 308 309 312 315 317 318 319 319 319 319 319 320 319 321 321 320 320 317 315 320 317 316 318 317 319 319 320 322 322 322 321 321 321 322 322 323 324 325 326 326 326 327 326 324 323 322 323 323 322 321 321 318 319 319 320
293 291 287 285 284 284 284 283 288 289 287 288 287 287 288 290 290 291 294 296 295 295 294 295 296 296 298 298 298 299 300 301 301 302 302 303 303 304 304 303 301 304 306 309 311 314 317 318 319 319 320 319 320 319 319 320 318 316 317 314 312 314 312 313 312 316 318 318 319 320 321 321 321 321 321 321 321 321 322 323 324 325 326 326 326 325 324 324 323 323 323 321 320 319 318 319 319
291 293 292 290 285 286 286 288 288 285 283 283 286 278 279 281 288 289 291 291 292 293 293 294 296 296 296 297 298 300 300 301 301 302 303 303 302 302 301 301 301 301 303 306 309 312 314 317 318 318 319 319 319 319 319 319 318 318 316 316 315 315 316 314 315 317 317 317 318 319 318 320 321 321 321 321 321 320 321 322 322 323 324 325 325 325 325 324 324 323 323 322 321 321 319 318 317
286 286 293 291 289 288 287 286 287 282 280 285 285 279 278 282 282 284 287 287 290 289 290 293 295 296 297 298 299 300 301 301 301 301 301 301 302 301 301 301 301 301 304 304 304 308 312 315 317 318 319 319 320 319 318 318 318 318 317 318 318 317 317 317 319 318 317 316 316 317 318 317 320 320 320 321 321 320 320 320 321 321 322 323 323 323 323 323 323 323 323 322 321 320 320 317 317
283 285 291 293 291 289 288 288 287 285 286 288 286 285 279 281 286 282 285 286 287 288 289 289 292 294 296 298 299 299 301 301 301 301 301 301 300 300 301 301 300 302 303 303 304 304 307 311 313 316 318 318 319 318 318 318 318 318 317 317 317 316 317 318 316 316 315 314 314 316 317 317 318 319 320 320 320 320 319 319 320 320 320 321 320 321 321 322 322 322 322 322 321 320 320 318 317
286 289 292 291 291 290 289 288 286 285 284 282 285 284 282 281 282 286 285 284 286 288 289 290 291 293 294 295 297 299 300 300 300 301 301 300 298 299 299 300 301 301 301 302 303 304 305 307 310 312 316 317 316 316 317 317 318 318 317 316 315 317 317 318 316 312 313 314 315 315 315 316 317 318 319 320 320 320 319 319 319 319 319 320 318 320 320 321 320 320 320 320 320 320 320 319 318
290 291 292 291 291 290 289 285 284 284 284 279 283 285 279 280 282 284 285 285 286 286 289 292 293 294 295 296 297 297 297 297 298 299 298 298 298 298 299 299 300 300 300 301 301 302 303 305 309 311 314 315 316 316 317 317 317 317 317 317 316 317 317 317 314 315 314 312 313 315 315 316 316 316 317 318 319 319 319 319 319 319 319 319 318 319 319 319 320 320 320 320 320 319 320 319 318
291 292 289 286 284 285 283 283 283 283 280 281 285 285 283 277 282 284 284 285 286 288 290 291 293 293 294 295 296 297 297 298 298 297 297 297 297 298 297 298 298 299 299 298 299 299 301 305 307 308 310 311 314 316 317 317 317 317 318 317 317 317 316 315 314 315 315 312 314 315 314 315 314 316 315 316 317 319 319 319 318 319 319 318 317 318 319 319 319 319 320 320 320 320 319 319 318
292 286 284 287 284 285 286 285 285 280 277 283 286 285 285 277 279 283 288 286 288 292 291 292 294 295 296 295 296 297 297 297 296 296 296 296 296 297 297 297 297 298 298 300 299 299 300 302 305 306 305 307 310 312 315 316 317 317 317 317 316 317 316 316 315 315 315 314 314 314 314 313 314 315 315 315 316 317 317 318 318 318 318 318 318 319 319 319 319 319 319 319 320 320 320 319 319
292 286 288 283 278 283 278 283 278 279 277 281 286 286 280 281 286 283 283 288 289 290 293 294 295 296 297 297 298 298 297 295 294 294 295 296 296 297 297 297 297 298 299 300 301 301 301 302 303 304 305 304 305 307 311 311 313 315 316 316 316 316 315 315 315 315 315 314 315 314 313 314 313 313 314 315 316 316 316 316 317 317 317 318 318 319 319 319 319 319 318 318 319 319 319 319 318
290 288 286 281 277 277 273 278 281 281 282 283 283 285 280 285 288 292 292 293 292 292 293 295 295 296 297 297 296 296 295 294 295 295 295 295 296 296 296 297 297 297 297 299 300 302 303 303 303 303 303 304 305 307 306 307 308 311 313 313 314 314 314 314 315 316 316 316 316 315 315 315 315 315 315 315 317 317 316 317 317 318 318 318 318 318 318 318 318 318 318 317 317 319 319 319 319
290 291 290 284 282 278 273 276 275 277 278 281 285 282 277 282 282 285 288 291 294 295 294 294 295 296 296 295 294 294 294 294 294 294 295 295 296 296 298 297 297 297 297 298 299 300 301 301 302 301 301 301 302 303 304 305 306 307 307 309 312 313 313 313 314 315 316 315 315 315 316 315 315 316 316 317 316 316 317 317 317 317 318 318 318 317 317 317 318 317 317 317 317 318 318 318 318
292 292 291 285 282 286 276 275 275 276 272 277 280 282 284 286 289 287 286 286 288 288 292 293 294 295 294 295 296 296 296 295 295 293 295 295 295 296 297 297 297 297 297 297 298 298 299 299 299 299 300 299 300 301 301 302 302 303 303 304 305 306 306 308 309 310 312 313 314 314 315 315 316 316 317 317 317 316 317 317 317 317 318 318 318 318 318 317 317 317 317 317 317 318 318 318 318
289 290 284 287 286 282 277 279 276 272 271 273 281 282 285 289 292 293 292 289 288 288 289 290 294 296 294 295 296 296 295 294 293 294 295 294 294 295 296 296 296 297 298 298 297 296 297 298 298 298 298 298 299 299 299 299 300 300 300 301 301 302 303 303 305 306 307 309 310 311 312 313 314 315 316 315 316 316 317 317 317 317 317 317 318 317 317 317 317 317 316 317 316 317 317 317 318
290 284 289 289 288 285 284 278 270 268 272 272 283 279 281 281 279 286 290 291 291 291 289 288 288 289 292 295 297 296 296 295 295 294 293 293 294 295 295 295 295 296 296 297 297 295 296 296 296 297 297 297 297 297 298 298 298 298 298 298 299 299 299 300 301 302 303 303 304 306 307 307 308 310 311 313 313 314 314 313 315 316 317 317 317 317 317 317 317 317 317 317 317 317 317 317 317
291 288 296 287 279 280 282 277 274 268 271 265 275 280 281 283 283 282 282 286 290 289 289 287 291 291 293 294 295 294 295 295 295 294 295 294 294 294 294 294 294 294 294 294 294 295 295 294 295 295 296 295 295 296 295 296 296 297 297 296 296 297 297 297 298 298 299 299 300 301 302 303 304 305 305 306 308 309 311 312 313 314 315 315 316 316 316 316 316 316 316 316 317 317 317 317 318
289 292 291 288 286 283 282 282 281 280 273 271 272 279 277 285 285 284 282 282 286 286 287 289 291 293 294 293 294 295 294 295 295 294 294 294 294 293 293 293 293 293 292 292 292 293 293 293 294 294 294 293 293 294 294 294 294 294 294 295 295 295 295 296 295 296 297 296 298 298 298 299 300 301 302 303 303 305 306 307 309 311 312 313 314 315 315 315 316 316 316 316 316 316 316 316 317
285 286 285 285 285 285 282 282 282 276 271 275 272 272 277 282 286 287 288 288 286 287 289 290 291 293 293 294 295 294 294 295 294 294 294 294 294 293 292 292 291 291 290 290 291 291 291 292 292 292 292 292 293 293 293 293 293 293 293 294 294 294 294 294 294 294 294 295 295 295 296 297 297 298 299 299 301 302 303 305 306 307 309 311 312 313 314 315 315 315 316 316 316 316 316 316 316
288 287 285 287 285 281 277 276 285 281 276 269 272 273 279 278 284 290 289 290 290 289 290 291 292 293 293 292 292 292 294 293 294 294 293 293 292 292 291 291 291 290 290 291 291 290 290 291 291 290 291 291 291 292 292 292 292 292 292 292 292 292 292 293 292 293 293 293 293 294 294 295 295 296 297 298 299 300 301 303 303 305 307 308 310 311 312 313 314 314 314 316 316 316 316 316 317
Wind_Speed
13 11 7 5 1 1 2 7 1 2 3 0 1 1 1 0 1 0 1 2 0 1 1 1 2 3 1 3 5 3 2 7 6 7 3 1 1 5 2 2 8 7 8 7 8 7 5 9 11 11 11 8 7 8 10 8 8 9 10 10 11 10 10 10 10 9 9 10 10 10 10 10 7 7 10 9 10 9 9 10 9 10 11 10 10 9 10 10 11 12 12 11 11 11 10 10 11
10 9 6 2 0 1 1 2 4 3 6 2 1 1 2 1 1 2 3 2 2 0 1 3 6 6 6 7 5 2 1 1 5 0 1 2 3 2 2 5 11 11 7 6 7 6 5 7 12 12 11 10 8 8 9 8 9 7 9 11 10 10 11 10 9 9 9 8 10 11 11 10 9 8 10 8 10 10 10 9 9 9 8 10 9 9 10 12 12 12 11 11 10 9 9 9 9
11 8 5 4 3 5 2 4 0 1 3 0 3 5 1 0 2 2 3 2 2 2 2 2 3 2 1 1 1 2 1 1 0 0 0 0 9 6 4 5 7 11 9 6 5 6 5 5 12 12 11 11 10 9 7 9 8 9 8 10 11 10 11 9 9 8 9 9 11 10 10 10 9 6 9 10 8 8 8 9 9 9 8 8 9 8 9 12 10 11 10 9 9 9 9 8 8
7 1 3 3 2 4 1 4 5 4 1 3 2 2 1 2 3 3 2 2 1 1 0 1 2 1 1 2 0 1 1 0 2 3 1 4 4 5 6 8 6 8 7 6 4 4 4 5 12 11 11 11 11 11 9 10 9 9 9 10 10 10 10 10 9 8 8 9 9 9 9 9 10 9 8 8 8 8 9 9 7 6 8 8 8 9 9 11 11 10 9 9 9 9 8 8 9
6 5 3 3 2 3 2 1 4 2 1 5 1 3 3 4 3 3 1 2 3 2 0 1 2 2 0 2 0 0 0 1 1 4 1 1 1 7 8 8 8 8 8 5 5 4 3 7 11 9 10 11 11 12 11 10 10 10 9 9 10 10 10 10 9 8 7 7 8 9 9 10 9 7 9 9 9 7 7 7 8 7 7 8 8 7 9 9 10 9 9 9 9 9 8 8 9
2 6 3 3 2 3 5 1 2 1 3 4 0 2 4 5 5 5 2 2 2 2 3 0 2 3 1 1 2 0 1 1 1 1 3 5 5 9 9 8 8 8 7 6 4 4 4 8 10 9 10 11 11 13 12 10 11 10 9 10 10 10 10 10 9 9 7 7 7 8 8 8 8 6 5 8 8 8 7 8 8 7 8 7 8 8 8 9 10 9 8 8 9 9 10 9 8
4 5 5 4 2 4 3 3 1 2 2 4 1 2 4 4 4 2 1 1 0 1 1 2 2 3 3 2 1 2 1 2 1 1 5 4 7 9 9 9 8 8 7 6 4 4 4 8 10 10 10 11 12 13 13 11 11 11 10 11 12 11 10 10 9 9 8 8 7 7 8 8 8 8 8 6 6 6 7 7 6 6 6 6 8 7 8 8 9 9 8 8 8 9 10 10 8
1 3 3 3 1 4 2 0 2 4 1 4 1 3 3 3 3 2 1 1 1 1 0 1 1 3 1 2 1 1 1 1 2 2 2 8 7 9 9 8 9 8 7 5 4 4 7 10 11 10 11 11 12 13 12 12 10 11 10 10 11 12 11 11 10 9 9 8 7 7 8 7 7 7 7 7 8 7 6 6 7 7 7 6 8 8 7 7 8 8 7 7 7 9 10 11 10
5 5 0 4 2 3 3 1 3 3 5 1 4 5 3 3 4 2 2 1 1 1 1 3 3 2 2 0 1 1 1 2 3 3 5 9 8 10 7 9 9 7 7 6 4 4 5 9 11 11 10 10 12 13 13 12 10 11 11 11 11 12 12 12 11 10 9 9 7 7 7 7 7 7 7 7 6 7 7 7 7 7 7 5 5 6 6 6 7 7 6 5 6 8 9 10 10
2 4 3 2 2 1 2 1 2 1 2 1 1 1 1 2 2 0 1 1 1 1 1 2 1 1 2 2 2 1 0 3 2 4 4 8 8 8 7 8 9 10 7 6 5 5 4 9 11 11 10 10 9 12 13 12 11 11 11 12 11 12 12 12 12 11 10 9 9 7 7 7 7 7 7 7 6 5 5 5 6 5 6 6 7 7 7 6 7 7 5 5 6 6 8 9 9
4 5 2 2 4 1 0 2 3 5 3 4 5 5 4 3 4 0 1 1 1 1 1 1 1 2 2 1 3 1 3 1 6 7 5 7 7 8 6 5 5 9 9 6 5 5 5 6 10 11 10 10 7 10 10 10 11 11 11 12 12 12 12 12 12 11 10 10 9 9 8 8 8 7 7 6 6 6 4 4 4 4 4 5 5 5 6 6 6 6 5 4 5 5 6 7 8
3 2 3 2 1 2 2 2 4 7 7 2 1 2 1 5 2 0 1 1 1 1 2 4 1 6 1 2 2 1 2 3 4 5 7 7 7 5 4 3 4 4 5 7 5 4 5 5 6 8 11 10 7 10 8 9 10 10 10 12 13 12 12 12 12 12 11 11 10 10 9 9 7 7 5 4 5 4 6 5 6 5 5 5 5 5 5 5 6 5 5 4 4 4 5 6 6
1 1 4 2 1 1 1 1 4 2 4 1 0 0 2 5 4 5 2 1 0 1 3 6 1 1 1 2 2 4 0 5 3 5 6 8 7 5 4 3 3 3 4 3 5 5 4 4 5 5 7 9 7 9 9 8 9 9 8 10 11 12 11 12 11 11 10 11 10 9 9 8 8 6 5 4 5 6 6 4 4 5 5 4 5 5 5 5 5 5 4 3 3 3 4 4 4
1 4 3 2 1 2 3 2 0 2 1 1 3 1 1 1 3 4 5 3 2 2 2 1 3 2 0 2 3 3 4 3 4 5 5 6 5 6 5 4 4 3 3 4 5 5 4 4 4 4 5 4 3 7 9 9 8 8 8 8 9 11 9 10 10 10 9 10 10 9 8 8 7 5 6 5 5 5 6 7 6 6 7 6 6 5 5 4 4 3 2 2 2 1 1 2 2
1 2 4 4 1 1 3 1 1 2 0 1 0 0 1 3 1 2 7 4 4 3 1 0 2 2 3 4 4 5 4 5 6 5 6 5 5 5 5 5 5 4 3 4 4 4 5 4 4 4 4 4 3 4 4 6 8 7 7 8 9 9 9 8 10 9 8 9 10 10 9 9 6 6 7 6 6 5 5 5 6 6 8 7 6 6 5 5 4 3 2 2 2 1 1 0 1
3 4 3 2 2 3 3 2 0 2 2 2 2 1 0 0 2 4 4 3 1 1 0 1 2 1 1 3 0 2 3 8 6 7 7 5 4 3 4 4 4 4 4 5 5 5 5 5 4 5 5 4 4 4 4 4 6 7 6 8 8 9 9 8 8 9 9 8 9 10 9 7 6 5 7 5 6 7 6 5 4 5 7 8 8 7 7 6 5 5 4 4 3 3 3 2 1
2 3 0 1 4 3 3 3 5 3 2 3 4 1 2 1 1 1 1 1 4 1 2 0 1 0 3 3 1 3 3 8 8 8 7 5 5 4 3 3 4 3 4 5 5 6 5 6 5 5 4 5 5 5 4 4 4 6 5 7 8 8 9 8 7 8 8 8 8 8 8 5 4 4 4 4 7 4 7 7 6 6 6 7 8 8 7 7 6 6 6 5 5 5 3 2 2
1 2 4 2 4 4 5 6 8 1 2 2 1 0 3 0 0 0 0 4 2 1 1 2 2 2 3 4 3 3 5 11 9 11 8 7 5 5 5 5 5 7 6 6 6 5 6 6 6 6 5 5 4 4 4 4 3 4 4 4 4 6 8 7 6 5 6 4 7 6 4 3 3 3 4 5 4 4 5 8 7 7 7 6 6 8 8 7 8 8 7 7 6 5 4 0 1
3 1 3 9 5 5 6 4 7 3 2 2 1 1 1 2 2 0 1 1 1 1 1 1 2 3 2 2 3 8 8 9 10 10 10 11 9 11 9 6 7 7 8 7 7 7 6 6 6 6 5 5 5 4 4 5 4 3 4 4 4 5 5 6 5 5 5 5 4 4 4 3 3 3 3 3 4 5 4 6 7 7 7 7 6 7 7 7 8 9 8 8 6 5 1 0 1
3 6 6 7 7 4 4 3 5 3 1 1 2 1 1 1 1 0 1 3 1 4 3 2 2 4 3 0 3 5 7 8 8 10 11 10 9 10 9 10 9 10 10 8 7 5 6 7 7 7 7 6 7 6 5 5 5 5 4 4 4 4 4 5 5 5 5 5 5 4 4 4 4 3 4 6 5 3 3 4 6 6 6 5 6 5 6 7 8 8 8 7 6 2 2 2 2
1 2 5 6 5 2 5 5 4 2 1 1 1 1 1 0 2 1 2 3 2 4 6 6 6 7 5 3 4 5 7 8 7 8 9 9 8 7 10 11 13 11 7 5 5 8 8 8 7 7 7 7 7 6 6 6 5 5 5 5 5 4 4 5 5 4 5 6 6 4 4 4 4 3 3 3 3 3 3 3 4 4 3 4 4 3 3 3 4 4 4 2 1 2 2 3 3
4 7 3 3 2 2 5 7 3 3 2 2 1 1 1 0 1 1 6 4 4 5 5 7 5 5 8 8 7 4 6 9 9 9 11 12 13 12 8 7 4 4 4 7 9 8 9 8 8 7 7 7 8 8 8 6 6 7 6 6 6 5 5 5 5 6 4 5 5 4 4 4 5 4 3 4 4 3 4 4 4 4 4 4 4 4 3 3 3 3 3 3 3 2 3 3 3
5 2 2 3 3 4 0 1 2 2 0 0 1 1 1 2 2 1 3 5 3 4 1 3 4 5 6 5 8 7 7 9 10 12 12 11 11 10 10 8 8 9 8 9 6 7 7 8 8 7 8 8 8 7 6 7 8 7 6 6 7 7 6 6 6 5 7 4 6 6 5 5 4 5 4 4 5 4 5 5 5 4 4 4 3 4 3 3 3 3 3 4 4 3 4 3 4
2 4 0 3 3 4 2 1 2 1 3 1 1 2 1 1 5 1 3 5 8 2 0 1 2 4 6 8 9 12 13 13 14 15 13 14 14 15 13 11 8 4 5 8 7 7 8 10 9 8 8 8 8 7 7 8 7 7 7 7 8 7 7 7 7 6 5 6 5 7 6 5 6 5 5 5 5 4 6 5 5 5 5 5 4 4 4 4 4 4 4 5 5 5 5 5 5
4 4 3 1 3 3 2 1 1 1 3 3 4 3 6 3 3 1 4 7 7 3 2 2 3 5 4 5 9 8 8 7 8 9 5 7 7 5 4 5 5 5 8 9 7 7 9 8 8 10 9 10 8 8 9 8 7 8 7 7 8 8 7 7 6 6 7 6 5 7 9 7 6 6 7 6 4 6 5 6 5 4 3 6 4 6 5 6 5 5 5 5 5 5 5 6 5
4 6 2 0 1 1 1 1 2 3 2 0 0 5 7 6 0 4 8 9 7 2 2 3 4 4 6 9 10 10 10 11 11 7 12 9 4 4 8 7 5 8 12 8 8 9 7 7 9 11 11 10 8 8 8 8 8 8 9 8 7 7 8 7 6 7 6 6 7 5 8 8 7 7 7 5 6 7 5 6 5 5 6 5 5 7 6 5 6 6 6 5 5 6 5 6 5
2 1 2 1 1 3 1 1 0 2 1 3 3 3 5 2 4 8 2 11 7 1 2 2 5 6 7 7 8 9 10 12 14 12 4 4 6 8 9 5 8 12 7 10 9 9 8 7 10 10 10 9 7 9 8 8 8 9 9 8 7 8 7 7 6 7 7 7 7 9 6 9 8 7 7 7 6 7 7 6 7 6 6 6 6 7 6 6 6 7 6 6 6 7 7 6 6
2 1 0 1 4 3 3 2 5 2 3 6 5 6 5 3 1 10 3 3 1 5 4 4 4 5 6 8 8 8 9 11 7 3 10 8 10 11 11 10 12 11 9 13 11 7 7 10 10 11 11 10 10 10 8 8 9 8 8 7 8 8 7 7 7 7 7 7 7 9 9 7 8 8 7 7 8 7 8 7 6 7 7 6 6 6 6 6 6 6 6 5 5 5 6 6 5
0 1 2 4 5 4 1 4 3 4 4 5 5 2 6 2 8 8 6 5 1 2 4 4 5 6 6 6 7 6 10 10 5 7 11 11 9 7 11 11 11 10 9 12 8 5 10 10 11 11 11 11 12 12 10 9 8 7 7 8 7 7 8 7 8 8 7 7 7 8 9 9 7 9 9 9 7 7 7 8 7 8 7 7 6 6 7 6 6 6 6 5 5 5 6 6 6
0 2 1 4 4 6 7 1 1 2 3 7 4 8 7 11 13 11 6 7 6 5 7 7 5 6 7 6 7 8 7 6 7 11 11 10 9 9 11 12 10 10 9 7 5 10 11 7 8 7 10 12 13 11 10 8 8 7 7 7 7 7 7 8 8 7 7 6 7 8 8 9 7 6 8 10 9 8 8 8 9 8 7 7 6 6 6 6 7 6 7 5 6 6 8 8 7
4 3 1 2 1 6 3 3 4 4 4 8 5 11 5 5 5 8 4 4 5 7 9 8 8 7 6 6 7 8 9 8 11 12 11 9 8 8 10 10 7 10 8 6 10 15 10 9 8 8 10 12 11 12 12 11 9 8 8 7 7 8 8 8 7 7 7 7 7 8 8 8 8 8 6 5 7 8 9 9 9 8 6 6 7 7 7 6 7 8 7 7 7 7 8 7 8
1 2 6 1 6 5 4 1 4 11 4 5 6 10 12 10 10 6 4 4 5 7 8 8 7 7 7 6 6 7 10 8 9 9 9 9 9 10 10 14 12 10 12 13 12 8 9 10 9 10 9 11 12 13 12 11 11 10 9 8 8 8 8 8 8 8 7 7 8 8 9 9 9 10 10 9 7 7 8 8 9 7 6 5 6 6 6 8 7 7 7 7 8 10 7 9 6
3 3 2 2 2 5 5 4 6 10 2 0 12 9 3 4 7 6 2 4 5 6 8 6 6 7 7 7 8 7 7 7 8 8 10 10 10 11 11 13 12 12 11 10 10 8 9 9 10 11 12 13 12 11 11 9 9 9 9 9 9 8 8 8 7 7 7 8 8 8 8 9 9 9 9 10 9 9 8 8 7 7 5 6 5 5 6 6 7 7 7 7 8 9 9 10 8
2 1 5 5 5 2 4 5 2 5 3 4 4 8 8 5 8 5 0 3 4 5 8 8 7 6 7 7 8 9 9 8 10 9 10 11 10 11 11 10 11 10 10 11 10 10 12 8 8 10 9 8 9 10 10 10 9 8 7 7 7 9 9 8 7 7 8 8 8 8 9 9 9 10 10 9 9 9 9 8 8 7 6 6 7 6 7 6 7 7 9 7 7 8 9 9 9
7 4 4 6 1 4 4 1 0 1 1 6 3 6 8 15 14 10 8 4 3 6 8 9 8 8 9 7 7 8 9 9 12 10 9 10 11 8 8 9 9 9 9 10 9 9 7 7 8 10 10 9 10 9 7 8 7 6 5 6 7 8 7 7 8 8 8 8 9 9 9 9 9 10 10 10 10 9 9 9 9 8 7 7 7 7 7 7 7 8 10 9 7 8 9 9 9
12 9 4 1 5 6 6 5 2 3 3 5 8 10 9 14 16 13 9 6 5 8 6 8 10 10 10 10 10 9 9 11 11 10 8 7 6 6 7 6 7 7 7 7 8 7 8 7 7 7 9 10 6 5 6 6 6 7 8 5 7 9 8 8 9 10 9 10 10 10 10 10 9 9 10 10 10 9 9 9 10 9 8 7 8 9 8 7 8 9 10 9 10 8 8 8 7
2 2 2 4 6 6 2 2 3 1 1 7 9 9 8 12 15 15 9 2 4 5 7 9 10 10 10 10 10 11 12 14 9 7 6 8 8 6 6 4 5 5 6 7 7 8 9 10 7 10 9 7 8 8 8 9 9 7 6 10 12 10 9 8 8 8 8 9 9 9 10 10 10 10 11 11 11 10 10 9 9 9 8 8 9 11 9 10 9 9 9 8 10 11 11 7 7
2 2 5 7 4 8 2 1 2 3 2 3 1 3 9 12 13 16 11 5 9 9 10 11 14 12 10 11 13 13 14 7 6 7 9 6 6 6 5 4 5 5 7 6 9 11 8 7 9 11 6 8 10 11 10 9 9 11 11 11 11 8 7 8 10 8 9 7 8 10 10 10 10 11 10 10 11 11 10 9 10 10 9 9 10 10 10 10 10 9 8 8 7 10 11 6 5
1 3 2 2 7 2 6 5 3 2 1 8 3 11 13 11 12 14 12 15 9 10 12 15 13 11 10 10 12 13 10 12 8 8 8 7 7 5 4 4 6 8 5 6 8 5 6 8 10 8 8 9 10 10 9 11 11 10 9 5 7 5 5 7 7 6 6 8 9 10 10 9 10 10 10 10 10 10 11 10 10 9 10 9 8 9 9 10 10 11 10 9 8 6 9 6 6
8 5 3 9 2 3 4 1 2 1 4 3 1 8 12 11 11 15 16 14 14 10 14 14 12 13 13 13 12 11 12 13 12 9 8 7 6 6 4 6 6 4 5 5 5 8 6 8 8 9 9 9 8 10 12 12 8 6 5 3 3 6 5 4 5 5 6 8 11 9 9 10 9 9 9 10 9 10 11 11 10 9 10 9 9 10 10 11 10 10 10 10 9 10 7 7 8
8 7 5 5 3 2 4 4 2 3 3 1 4 9 13 11 13 10 14 17 16 12 7 10 11 10 10 7 7 9 13 11 10 10 9 7 7 7 6 5 3 5 5 6 7 8 7 9 10 10 9 10 9 10 12 8 5 5 4 2 2 1 1 2 3 6 8 8 7 9 12 8 9 9 8 9 10 11 10 10 10 10 9 9 9 10 10 11 11 10 11 10 10 10 11 8 7
7 10 12 7 2 4 1 2 4 6 6 0 1 6 10 3 12 15 8 5 11 6 7 11 12 11 8 11 14 12 11 9 10 10 11 8 6 6 5 5 5 5 5 6 4 4 5 6 6 6 7 7 9 11 10 8 9 8 7 7 7 7 8 6 9 13 10 9 11 4 4 6 7 8 8 8 9 9 10 10 9 9 10 9 9 10 10 10 12 11 11 10 11 12 10 9 10
4 7 10 8 7 4 3 2 2 4 7 1 1 7 13 2 2 3 6 4 10 3 5 8 11 12 10 13 12 11 12 11 8 8 8 8 9 6 7 6 5 5 8 5 3 5 6 7 6 7 7 7 7 6 7 8 8 8 11 11 10 10 10 9 9 5 1 1 3 5 5 4 7 8 8 8 9 9 9 9 10 10 10 9 9 9 10 13 11 10 9 9 11 9 9 11 13
6 3 10 12 12 9 7 4 6 7 0 4 1 2 5 14 10 4 5 5 7 7 6 7 9 9 12 12 12 11 12 11 9 9 9 8 7 5 8 5 4 7 7 5 6 4 4 6 5 6 7 8 7 5 7 8 9 8 7 7 6 5 7 9 3 1 2 3 4 5 5 6 6 8 9 8 9 9 9 9 10 9 10 10 9 10 12 11 9 9 9 10 10 10 11 12 13
4 4 10 9 9 8 5 5 5 2 4 11 5 3 5 9 5 2 3 6 7 9 8 8 10 10 10 11 13 14 13 10 8 9 9 6 5 5 5 6 6 5 4 4 5 5 4 4 5 5 6 6 4 5 7 8 7 7 6 5 6 7 7 8 5 2 3 4 5 5 6 7 7 8 8 9 9 9 10 10 10 9 10 11 9 10 10 11 11 11 10 10 11 11 10 11 11
2 4 3 3 5 5 6 5 4 3 2 15 11 7 7 19 4 3 0 4 8 6 9 12 11 11 12 13 13 11 6 6 6 8 5 3 4 5 5 5 5 4 4 4 4 4 4 4 5 6 7 5 5 7 9 9 9 8 9 9 11 10 8 7 4 6 5 4 5 7 6 6 6 5 7 7 7 8 9 9 9 10 11 11 9 10 11 11 11 12 12 12 11 12 10 11 12
4 6 6 5 4 2 2 2 2 1 11 19 6 11 8 12 3 9 6 7 7 8 7 6 6 7 8 10 9 7 6 7 7 5 4 5 4 4 4 4 4 5 4 3 3 2 3 4 4 3 1 3 5 7 8 9 9 9 9 10 10 10 8 5 5 7 6 4 7 7 6 6 5 6 6 7 9 9 9 9 9 10 10 9 9 10 11 11 11 11 11 11 12 13 11 12 12
7 3 4 6 3 3 2 1 3 8 11 13 9 11 10 9 3 4 5 2 6 12 11 11 10 10 8 6 7 8 8 5 3 2 3 2 3 2 2 3 4 5 4 5 4 3 2 1 1 3 3 1 1 4 5 6 6 8 6 6 8 9 6 5 7 8 7 6 5 6 6 4 6 6 6 6 7 8 8 8 9 9 9 9 11 10 10 11 11 10 9 9 10 12 12 12 12
7 5 7 8 4 5 6 5 11 12 12 1 14 10 1 12 23 4 5 7 7 6 7 10 10 9 8 8 10 6 2 3 4 3 3 3 2 0 1 1 1 3 4 4 4 4 4 6 6 7 6 5 4 1 2 4 4 5 5 6 5 5 4 5 5 6 6 5 5 5 5 6 6 5 7 7 8 8 8 8 8 9 9 10 11 10 10 11 10 10 10 10 11 11 11 13 12
9 9 7 8 6 8 8 10 3 5 4 4 4 4 4 6 17 15 23 17 11 10 10 9 8 9 9 7 4 4 3 2 3 3 3 3 0 1 1 2 2 3 4 4 4 5 5 7 7 9 6 6 5 6 5 4 1 0 1 3 4 4 5 5 6 6 7 6 5 6 6 6 6 7 7 8 8 8 8 9 9 10 10 10 10 11 11 10 10 10 11 11 11 11 11 13 14
12 5 11 11 10 6 11 8 12 9 6 1 5 4 7 10 7 3 4 5 8 7 7 6 6 7 6 4 3 3 4 3 1 2 2 2 1 3 5 4 4 4 4 4 4 5 6 7 7 8 8 7 7 7 7 7 6 5 4 2 1 1 2 3 4 3 4 4 4 5 6 5 6 6 6 6 6 7 8 8 9 10 10 10 10 10 10 10 11 10 10 11 11 10 12 12 12
10 10 6 8 14 2 5 3 3 3 2 2 4 8 5 12 3 2 3 3 4 3 5 6 8 8 6 6 6 6 4 4 1 1 3 3 4 4 5 4 4 4 5 5 5 4 7 6 6 7 7 5 6 7 6 6 5 6 6 6 5 4 3 2 2 2 3 3 4 4 5 5 5 5 5 5 5 6 7 8 8 9 9 9 9 10 10 10 10 10 10 10 12 9 11 14 13
8 8 13 11 3 6 1 3 1 3 2 9 4 7 11 8 16 11 6 1 4 0 3 3 9 10 6 8 8 6 4 3 0 4 5 5 4 4 4 4 4 4 5 6 5 4 5 5 6 7 6 6 7 6 6 5 5 6 5 5 5 6 5 5 4 4 4 4 4 4 4 4 4 3 5 4 5 4 6 6 7 8 8 9 9 10 10 10 10 10 10 11 12 10 11 13 13
6 13 11 3 1 2 4 10 2 1 7 6 13 16 11 4 13 1 7 12 10 9 7 4 4 4 6 10 10 5 3 2 4 5 4 4 4 4 4 3 4 4 5 5 5 4 4 4 4 5 5 7 5 5 5 5 5 5 4 5 5 4 4 4 4 4 5 5 5 5 5 5 5 5 5 5 5 6 5 6 6 7 7 7 8 9 9 10 10 10 11 11 11 10 11 11 11
13 8 10 10 6 6 6 1 13 2 7 3 5 7 15 11 14 1 1 9 12 9 8 5 7 7 8 9 7 3 5 5 5 5 5 4 4 4 4 4 3 4 4 4 4 4 4 4 4 4 5 4 4 4 3 3 3 3 3 3 2 3 2 3 3 3 3 3 4 5 5 5 6 6 6 6 6 6 6 6 5 6 6 7 7 8 8 8 9 10 10 10 10 10 11 12 12
3 6 10 2 1 8 11 12 4 6 11 5 10 10 15 9 8 4 2 3 7 6 8 10 13 11 9 6 3 6 6 6 5 4 4 4 4 4 4 4 4 4 4 4 4 3 4 3 4 4 4 3 3 4 3 4 3 3 3 2 3 3 3 3 3 3 3 3 3 3 4 4 5 6 5 5 5 6 6 7 6 6 7 7 7 7 7 8 8 9 9 9 10 10 12 13 12
4 5 8 2 5 1 2 2 10 5 4 11 7 10 5 7 7 9 11 11 9 10 10 9 9 9 6 5 8 6 6 7 6 5 5 4 4 4 3 2 3 3 3 3 3 4 3 3 4 4 5 4 5 4 4 3 3 3 3 4 4 4 4 3 3 3 3 3 3 3 3 4 4 5 5 5 5 5 6 7 7 7 7 7 7 8 6 7 8 9 9 10 10 10 12 12 11
13 12 13 15 13 9 8 11 4 6 5 5 5 17 7 5 4 10 13 13 13 12 10 9 9 7 6 4 3 5 7 5 5 5 5 5 4 3 2 2 2 3 3 4 3 3 4 5 4 4 5 6 4 5 4 3 3 3 4 4 4 3 4 4 4 5 5 4 4 4 4 4 4 4 4 5 5 6 5 6 6 7 7 7 7 8 7 7 8 9 10 8 9 10 12 13 12
Wind_Direction
325 320 325 319 51 90 50 3 135 335 61 293 -0 12 206 0 213 61 221 348 53 249 206 23 129 124 166 210 186 186 198 132 201 132 215 234 276 178 213 171 129 137 144 152 143 164 167 151 150 148 145 148 161 180 150 151 151 152 145 141 138 134 133 131 129 132 129 126 127 122 118 117 116 108 116 114 115 109 105 105 109 110 106 103 107 107 108 112 108 102 100 95 85 81 84 94 99
318 323 322 354 338 54 295 120 96 353 38 56 231 100 245 277 68 219 187 186 203 53 21 115 83 90 60 67 100 127 41 260 174 196 264 241 76 168 241 164 147 146 150 151 151 159 158 159 152 152 151 152 162 177 163 154 154 163 150 146 143 139 134 130 133 137 138 137 118 120 119 121 123 128 121 122 122 122 121 122 115 101 105 114 110 113 120 115 111 109 96 89 93 90 97 104 106
321 341 337 24 28 71 90 34 302 53 80 26 274 206 330 108 223 249 215 210 221 188 171 109 123 62 6 22 21 48 213 23 342 6 252 310 134 222 193 163 159 144 147 151 159 150 154 162 152 154 156 156 160 173 185 167 163 158 160 149 145 142 137 136 138 144 139 129 129 128 125 125 124 120 128 127 113 107 105 96 97 110 117 106 109 116 124 115 111 106 104 103 92 88 87 99 113
313 38 356 33 330 33 47 25 87 120 115 204 306 279 201 184 241 206 230 224 221 159 288 15 65 239 74 40 191 115 330 334 193 156 147 198 210 145 163 160 152 138 146 154 156 149 143 166 146 158 163 160 163 170 180 178 169 159 163 152 147 144 141 141 139 141 145 141 132 126 129 131 126 128 123 116 119 120 116 103 98 102 108 100 113 126 123 123 123 116 110 100 88 79 77 81 114
338 321 45 95 93 3 95 106 134 103 82 204 125 274 256 211 202 213 260 252 269 187 271 161 75 335 185 120 273 89 271 229 289 167 180 244 206 151 155 153 146 148 154 162 155 147 153 164 150 163 162 163 165 170 178 184 173 168 162 155 148 146 145 147 142 144 143 132 133 135 133 125 122 129 137 134 122 119 115 119 123 127 128 127 121 122 128 120 120 114 106 94 81 75 77 79 98
345 358 4 73 65 167 56 62 29 334 214 151 98 238 223 217 188 202 238 292 257 195 197 75 162 205 9 295 174 57 198 52 194 219 158 213 166 149 156 150 152 158 162 156 156 152 163 168 154 156 160 167 168 171 179 188 177 172 163 160 152 152 155 152 152 147 148 146 140 140 129 133 131 136 124 126 128 129 131 126 122 121 113 112 112 128 134 132 128 122 108 99 82 77 73 77 87
349 12 1 23 27 47 145 111 262 204 301 168 278 265 227 213 220 130 294 61 242 187 170 219 111 87 73 302 21 240 217 156 100 240 168 159 150 151 152 156 154 161 160 159 157 159 168 169 151 154 161 165 171 174 179 185 176 173 173 170 160 160 160 157 156 149 151 153 155 156 146 140 141 141 143 136 126 121 131 122 114 111 115 120 118 123 135 136 134 123 114 94 81 76 75 74 85
109 48 325 89 314 41 52 138 243 160 295 172 234 253 262 225 154 144 191 113 209 170 52 172 217 108 261 89 156 253 6 214 239 317 183 128 154 152 158 156 159 162 161 157 162 168 170 168 155 157 165 172 173 178 183 183 181 176 185 170 167 162 162 162 158 154 162 161 162 154 143 140 133 140 145 147 144 145 141 136 144 149 145 137 123 127 134 140 136 131 118 95 83 78 73 76 82
5 89 195 66 27 38 48 36 267 239 282 283 291 220 279 167 139 125 197 262 306 267 246 204 224 105 234 63 217 248 306 294 296 182 150 139 157 157 161 162 162 162 163 160 168 169 170 167 160 164 168 182 178 180 185 187 191 184 189 169 179 165 166 165 162 165 166 161 162 154 153 149 152 156 155 153 159 157 159 159 151 144 130 121 124 121 129 137 145 143 123 99 78 71 69 71 74
23 48 343 101 131 2 3 293 46 177 244 257 271 282 162 153 141 84 203 320 244 111 244 337 149 105 142 172 304 338 87 308 102 96 152 149 154 155 162 170 167 161 161 168 170 170 170 172 164 167 174 187 180 180 183 187 193 193 194 175 177 168 170 169 166 169 172 167 162 166 159 162 165 170 161 161 167 179 154 150 145 136 137 148 140 140 135 146 155 148 132 113 86 75 70 70 71
331 15 136 70 27 62 35 264 258 316 286 322 291 249 232 140 131 184 180 255 12 161 303 200 23 139 133 247 209 249 335 149 134 163 162 152 151 162 163 175 171 166 165 173 175 171 172 173 170 173 177 188 188 173 189 186 191 195 192 178 178 172 172 173 172 173 175 169 169 168 172 172 177 172 168 173 159 168 160 154 154 148 154 151 148 140 144 148 160 161 147 130 100 86 76 72 73
319 24 12 102 189 161 229 185 280 281 299 325 147 338 181 133 100 165 230 174 222 303 178 132 244 146 101 333 287 273 337 169 189 155 152 145 157 156 154 156 159 182 173 167 167 174 175 172 174 180 183 184 187 171 186 183 191 192 193 183 182 178 174 177 177 178 178 170 175 171 178 180 183 182 158 120 144 151 168 172 173 174 172 165 166 166 158 159 168 168 165 135 112 99 86 80 78
98 95 79 96 213 150 185 307 252 281 329 292 197 28 136 122 180 193 177 178 20 129 296 202 153 93 205 192 255 319 199 211 199 149 150 152 154 140 128 138 157 162 152 161 167 179 180 180 177 184 189 182 183 174 176 186 193 190 186 190 184 186 181 180 180 183 182 171 177 174 182 181 188 182 133 138 148 158 173 162 173 181 181 179 181 177 173 177 168 176 171 136 128 111 100 90 87
129 184 127 261 61 127 153 239 326 6 310 253 267 275 222 147 244 175 130 161 226 169 244 193 131 141 125 358 311 294 243 202 177 146 143 145 139 140 145 144 151 161 167 169 187 183 186 186 181 183 190 182 178 182 177 186 199 191 185 187 186 186 192 181 183 185 182 171 172 176 180 185 196 154 148 158 158 159 151 160 175 190 192 188 193 189 196 189 189 185 178 164 154 156 118 104 94
289 143 82 115 111 79 241 149 225 144 256 229 263 50 76 251 111 157 167 163 246 209 346 87 188 110 245 147 282 226 216 178 151 134 131 128 135 140 144 150 160 163 173 192 199 180 195 188 187 183 187 180 183 177 183 194 198 199 187 185 193 191 190 188 182 184 183 177 171 174 182 185 192 161 158 167 166 164 155 165 181 185 198 194 195 198 198 204 203 202 204 222 224 231 242 246 92
142 83 83 139 207 164 253 179 35 99 261 191 275 137 26 316 188 129 232 148 186 7 316 205 17 209 169 169 199 266 205 140 139 126 124 121 120 121 134 150 164 180 186 193 197 202 194 189 190 189 185 184 182 178 183 190 206 200 197 191 195 187 191 195 189 182 182 182 181 176 179 183 181 172 172 177 175 176 173 174 192 196 206 205 197 201 206 208 207 207 204 219 236 243 261 287 330
74 79 252 58 225 165 243 165 153 225 239 260 291 126 175 245 207 247 92 103 127 199 12 227 198 55 199 208 289 283 160 123 123 124 121 130 138 150 143 156 174 193 199 207 202 201 194 191 191 186 200 189 186 184 182 188 201 203 196 205 196 186 189 198 196 188 183 187 187 188 179 174 180 179 182 183 187 184 186 183 190 202 205 216 205 208 211 212 220 218 217 217 225 236 244 271 347
76 180 126 213 195 161 210 181 188 197 123 267 332 133 127 142 15 272 73 31 72 7 107 309 300 268 235 267 299 147 146 133 144 141 154 153 165 173 193 193 186 198 199 206 213 205 194 196 190 190 193 200 191 188 188 182 194 200 190 196 205 193 191 199 197 188 186 186 193 190 180 176 178 189 192 191 192 193 198 195 198 207 203 212 202 209 217 213 221 226 229 229 231 235 236 257 328
142 108 134 227 175 234 166 206 197 126 240 191 241 256 166 197 136 255 120 276 39 149 283 18 304 285 333 3 99 130 147 143 155 160 163 170 180 188 195 179 202 200 211 207 209 204 198 192 192 192 193 193 192 196 195 188 185 191 199 188 197 200 195 196 199 197 187 183 194 192 186 182 182 190 198 207 200 201 208 212 211 216 214 210 216 212 220 215 219 224 230 233 241 243 262 324 300
217 131 214 237 207 232 221 205 199 228 167 189 134 180 147 239 160 331 183 178 82 194 213 303 276 246 259 316 135 150 156 158 166 168 178 184 188 191 190 199 206 212 210 207 204 202 197 199 197 193 193 192 188 194 196 195 192 187 193 192 190 202 198 196 196 198 198 185 190 200 191 189 191 196 207 215 205 194 225 246 250 254 256 251 243 241 235 225 217 222 226 229 236 286 297 273 262
248 122 198 223 197 184 254 183 239 229 189 173 60 297 100 217 216 133 185 118 242 264 228 180 212 225 208 198 176 171 165 169 180 183 186 195 202 201 201 201 203 207 209 196 203 207 202 200 195 201 197 194 192 191 193 195 193 196 197 193 191 198 203 192 197 200 201 192 186 201 205 189 195 207 213 215 211 204 219 221 223 227 232 241 245 244 248 269 258 238 239 251 244 233 251 249 253
110 210 185 174 130 193 256 206 188 162 187 90 4 14 232 301 68 143 150 170 217 213 238 208 214 198 159 179 196 181 181 183 189 188 197 197 198 205 207 217 221 212 189 204 211 210 207 200 199 198 197 201 198 193 194 191 187 205 202 197 196 200 203 196 195 196 211 204 181 194 208 204 198 203 216 221 221 206 224 227 228 222 226 232 211 226 213 232 238 243 239 233 226 202 227 249 254
210 303 226 201 201 178 285 164 232 159 102 60 7 270 352 51 291 226 170 189 234 217 205 198 218 202 184 151 154 182 191 197 198 203 200 203 210 214 212 207 197 202 200 217 205 213 207 203 202 195 202 202 206 200 195 192 202 204 200 199 198 203 200 202 202 197 196 211 192 181 200 213 206 206 215 219 228 220 229 228 230 225 237 233 224 237 233 225 227 233 228 229 232 220 231 228 254
153 224 170 248 184 214 157 116 62 55 74 277 199 359 303 323 310 106 190 246 241 260 249 282 221 144 142 152 185 187 193 195 204 208 203 205 203 208 205 204 210 203 202 220 208 208 207 207 201 198 206 202 205 199 199 201 201 201 204 202 208 206 200 202 205 209 195 200 211 188 200 212 208 209 217 221 225 218 229 227 225 225 237 227 235 231 227 237 224 233 236 240 231 234 243 247 251
188 249 203 241 143 234 264 199 287 339 282 290 342 311 259 202 229 34 247 247 258 262 147 77 115 131 146 171 188 203 208 222 233 230 236 244 235 242 243 227 210 200 224 219 212 212 214 206 198 206 207 207 205 196 203 203 201 204 203 207 209 201 212 212 205 196 210 207 213 205 185 213 211 213 218 220 214 229 230 223 219 229 232 242 226 237 224 231 235 230 238 239 238 237 239 246 250
190 213 157 316 269 282 245 254 189 195 236 111 32 263 270 259 251 254 235 255 246 167 107 123 120 140 178 192 196 196 206 212 220 224 223 226 234 234 237 220 210 215 223 216 206 217 212 199 202 208 207 207 205 199 209 202 202 205 207 210 211 202 213 211 201 209 211 207 212 227 201 196 216 211 219 218 216 232 232 233 195 235 235 232 229 230 230 216 225 231 232 243 244 245 243 248 246
169 160 180 208 288 357 20 200 71 175 215 149 188 269 269 289 136 273 271 234 254 137 166 158 155 189 205 205 205 208 205 214 212 217 240 246 238 227 238 220 219 230 214 224 217 213 201 193 207 207 208 208 202 206 207 211 204 208 208 207 207 212 210 209 212 206 206 213 210 217 231 204 205 218 213 218 221 226 228 228 228 228 233 229 229 240 239 239 238 234 235 240 245 252 253 256 251
15 102 345 305 333 288 259 315 282 156 285 186 186 243 264 306 153 236 206 266 167 215 228 201 205 215 217 222 215 215 216 227 223 181 218 214 224 220 227 215 223 227 212 228 222 205 193 204 204 204 204 203 203 208 206 210 209 212 210 207 211 211 205 212 215 216 212 212 210 210 221 226 206 209 214 213 217 220 225 223 221 218 227 225 221 230 236 238 240 242 244 248 254 257 262 258 258
248 152 283 298 343 318 320 215 255 147 261 163 169 303 276 199 228 229 208 252 220 214 242 227 220 231 231 232 228 219 220 226 204 212 225 220 224 218 229 225 223 222 225 231 224 194 212 207 205 206 200 201 204 207 206 208 207 208 206 210 212 208 209 211 216 217 217 214 216 215 212 218 218 213 216 226 226 227 228 227 224 221 223 221 218 223 228 233 236 237 236 241 252 256 255 245 255
131 50 135 326 345 300 263 262 348 147 248 155 151 268 211 233 235 245 216 231 251 266 260 257 239 227 239 237 235 236 238 236 218 221 225 222 220 217 224 233 221 224 229 225 208 217 217 208 205 203 202 205 206 206 206 206 205 205 205 207 207 207 211 212 216 217 218 221 218 222 225 220 219 218 217 218 223 231 233 231 231 230 224 221 220 216 227 225 232 223 225 224 229 232 242 247 243
188 238 75 207 163 260 285 192 183 221 190 174 145 250 239 273 280 261 238 215 198 222 240 243 254 253 237 235 241 244 247 226 228 228 232 228 228 226 228 241 224 225 231 222 211 223 214 209 197 208 201 207 205 208 206 207 200 202 201 202 201 202 208 214 214 215 215 216 218 223 223 224 226 231 232 226 220 221 228 234 233 233 224 214 216 214 221 227 230 230 225 228 226 236 244 246 243
350 116 252 329 180 280 290 163 186 194 247 157 138 257 256 250 252 253 233 179 167 222 237 241 242 254 264 261 242 243 246 244 242 242 239 232 226 230 224 234 226 222 220 223 225 223 218 213 202 210 200 205 207 208 208 207 203 200 199 200 201 198 205 211 211 212 213 213 215 221 220 221 219 219 224 231 241 232 232 236 238 239 230 224 222 219 215 226 229 237 227 222 233 235 242 250 236
351 168 278 242 198 247 341 266 208 223 180 270 190 233 334 306 253 254 276 161 185 213 246 250 256 256 261 263 267 260 263 263 255 243 241 233 229 225 228 233 231 224 225 229 225 220 226 218 208 211 207 206 207 208 209 210 208 206 202 200 200 197 204 209 208 208 213 215 214 219 216 220 223 222 220 219 226 235 238 243 246 242 233 231 231 224 223 223 229 235 236 222 228 248 242 252 247
292 42 220 205 188 173 223 298 290 215 189 238 245 244 243 263 283 284 0 155 158 214 251 260 253 253 245 245 253 260 259 260 257 243 237 230 233 226 226 230 234 229 229 227 225 216 221 214 208 213 217 211 208 206 204 206 209 207 206 205 202 206 208 205 201 200 212 214 215 218 213 217 219 222 222 221 227 229 234 239 241 234 226 225 228 225 228 220 225 226 242 230 227 239 249 252 259
183 192 225 265 253 202 228 127 125 90 242 217 250 248 262 266 264 263 269 181 174 231 246 262 265 261 262 255 242 243 249 254 256 246 228 231 234 234 225 228 233 229 228 226 225 222 219 210 205 211 210 207 209 203 197 199 200 206 206 203 207 215 214 208 200 206 209 209 216 215 213 216 218 217 218 218 224 226 229 233 237 230 218 219 221 225 227 220 220 222 233 241 228 234 244 249 253
206 190 190 137 196 223 217 235 284 162 201 219 227 234 239 256 265 265 253 255 240 254 266 278 276 270 268 266 268 265 256 253 253 259 244 243 237 230 226 225 230 229 228 226 224 217 217 214 206 212 211 207 198 188 179 188 185 194 204 208 222 219 214 207 205 211 205 211 211 209 212 215 214 214 215 216 221 221 227 228 232 226 222 218 223 228 228 221 222 224 233 236 246 243 234 247 252
123 107 169 216 214 277 274 267 251 353 23 236 230 244 248 257 264 266 263 229 230 252 257 253 255 261 261 262 262 262 260 253 252 254 258 245 244 239 237 225 236 233 231 222 218 217 212 210 188 215 209 188 184 185 189 187 192 194 210 213 220 213 212 209 213 215 212 215 209 211 214 216 214 212 212 211 217 218 222 226 227 227 221 220 225 232 229 230 222 222 232 224 236 246 250 228 234
136 176 197 241 187 242 251 265 343 336 170 292 262 254 249 250 264 268 275 240 241 231 246 252 253 249 253 258 262 259 257 273 270 271 258 248 242 233 230 230 225 223 234 208 214 218 211 199 200 219 181 191 196 196 194 192 198 199 195 208 211 207 201 201 217 212 217 211 208 212 215 215 213 215 212 211 216 216 219 220 222 224 217 222 226 231 229 228 225 223 219 236 215 233 252 223 220
229 182 204 257 254 272 284 264 236 251 53 264 287 265 262 252 250 264 262 259 237 220 223 240 245 251 244 246 254 262 274 270 261 248 261 264 263 256 205 221 222 218 226 205 223 217 206 200 215 213 193 194 202 197 187 203 205 207 202 206 192 206 210 209 218 213 204 213 215 216 215 214 214 219 213 211 216 219 223 224 227 225 226 224 227 229 226 229 225 226 220 227 239 219 243 225 210
225 197 164 223 229 154 289 298 20 290 181 248 332 288 274 257 248 254 256 255 252 218 226 236 235 242 243 238 239 253 256 259 267 259 255 255 253 262 235 215 221 216 236 234 226 217 211 208 214 206 204 201 198 199 202 213 203 198 211 176 172 187 194 197 206 199 208 210 224 218 220 216 212 218 211 212 216 220 219 224 227 227 229 223 227 235 229 232 229 229 225 227 227 249 231 240 195
222 217 225 233 168 256 175 261 315 269 300 279 310 287 281 244 255 246 246 242 255 241 226 244 251 242 249 269 275 244 250 254 261 272 271 268 269 263 262 258 202 209 220 221 217 213 211 214 214 206 204 202 202 198 205 197 165 177 164 124 90 103 52 160 184 230 217 218 228 214 225 211 216 219 212 212 214 221 221 225 225 228 229 227 225 233 235 234 232 231 225 225 222 232 252 246 226
235 227 219 214 146 209 292 338 -0 4 320 315 150 334 273 252 216 237 256 258 252 247 215 237 246 247 244 249 245 252 253 248 246 253 256 262 267 278 286 293 288 260 239 228 208 230 229 236 230 215 210 207 206 204 196 172 188 180 164 176 198 209 217 192 211 221 210 208 220 232 229 209 217 223 219 216 217 218 222 223 225 227 229 229 225 231 239 241 237 231 226 225 233 228 239 252 252
209 254 192 198 203 203 187 252 97 272 258 311 62 187 278 77 288 242 257 257 259 291 219 240 237 243 239 240 244 245 249 257 248 250 259 262 258 264 274 271 273 286 277 283 247 221 216 223 223 214 212 219 217 205 174 174 185 189 193 199 206 203 212 228 228 243 256 233 222 228 217 202 211 216 224 220 221 219 221 221 222 225 228 230 229 230 237 238 239 236 231 223 231 235 225 241 248
237 226 151 191 200 205 211 181 200 250 70 272 202 172 263 291 261 209 234 247 269 280 265 253 248 243 243 243 245 243 242 243 245 244 243 241 251 242 260 267 245 238 256 272 273 263 231 233 221 216 214 214 208 176 169 182 191 195 199 213 219 224 219 240 241 258 199 202 201 221 206 213 209 211 218 219 220 220 218 222 220 222 225 229 225 227 235 240 242 240 231 228 229 226 226 231 245
226 136 155 193 185 200 193 186 232 237 15 276 248 116 287 246 281 319 171 224 261 263 266 259 249 244 243 247 245 240 238 240 236 248 251 256 259 250 239 260 255 254 264 264 262 267 260 233 214 214 218 216 193 160 167 183 187 182 189 193 221 227 228 238 224 153 181 183 207 226 212 213 208 211 213 217 216 218 218 223 221 221 225 229 225 232 237 239 237 237 232 227 227 229 225 232 239
250 156 84 104 152 187 175 198 204 286 255 260 244 149 225 275 186 183 335 202 230 239 250 250 245 234 229 237 245 247 250 255 251 246 263 276 257 257 243 254 289 294 292 275 263 254 249 230 205 200 213 197 174 165 170 179 183 173 182 195 207 224 216 237 229 236 224 194 207 227 224 220 217 213 221 222 222 220 223 222 223 224 226 230 227 230 236 239 238 236 233 232 230 232 230 230 232
112 98 92 38 50 92 59 107 132 65 246 249 216 161 181 281 215 192 165 215 189 222 251 259 254 250 244 241 248 256 247 243 252 264 254 238 251 261 291 291 296 309 301 296 296 285 267 213 206 198 221 159 165 172 174 183 182 185 195 199 207 222 222 214 231 245 237 216 229 240 237 235 215 223 217 222 222 224 224 223 224 228 229 230 231 232 233 235 238 237 236 234 233 232 233 234 235
132 132 119 90 354 73 104 220 123 218 249 251 138 189 181 223 280 208 207 268 211 196 215 230 238 241 246 238 236 235 231 230 224 231 259 279 300 310 325 321 313 307 343 9 357 348 5 26 99 95 33 21 152 166 175 178 179 192 201 199 209 221 219 211 220 242 240 232 230 243 243 231 232 227 222 226 229 227 226 226 227 231 230 229 232 231 234 236 239 238 237 233 235 233 236 237 238
159 113 132 149 206 147 222 164 209 207 232 132 163 164 196 221 252 206 272 236 236 240 226 222 227 241 247 254 247 252 250 181 198 228 245 248 232 14 323 318 339 17 23 15 19 34 52 59 69 75 41 24 26 52 155 175 174 189 196 206 219 223 225 223 229 240 249 240 231 236 236 237 236 232 229 229 232 226 220 227 228 225 229 229 233 232 235 235 238 237 237 235 234 235 234 233 238
183 170 165 158 178 193 227 215 288 293 266 234 187 169 209 263 273 243 240 235 229 219 223 234 230 231 237 246 278 287 271 233 213 216 238 259 194 239 205 158 109 74 52 48 50 66 73 78 76 78 62 46 55 61 62 76 57 82 212 206 216 210 225 223 228 234 246 239 233 236 233 236 237 232 235 229 231 227 224 225 226 229 228 231 230 232 234 234 234 236 235 236 234 235 236 237 239
196 174 187 192 184 181 212 199 204 205 232 128 208 118 220 191 224 313 251 274 246 238 232 234 250 256 267 278 281 299 289 278 233 233 248 245 223 166 135 123 112 95 87 77 72 73 81 74 73 77 67 45 55 56 56 57 53 48 45 43 35 277 243 243 251 251 265 268 255 248 253 248 244 253 240 246 234 227 230 230 228 232 232 232 231 233 233 234 234 236 236 236 238 234 236 237 240
196 191 192 216 215 218 194 197 175 222 213 196 211 212 205 221 10 255 223 302 301 305 265 230 246 252 258 274 268 262 277 289 305 145 113 109 118 119 117 112 109 102 93 80 63 57 73 76 79 76 79 67 62 62 57 60 53 54 46 43 31 29 14 347 326 313 297 280 275 261 266 262 253 259 261 255 252 237 238 238 234 235 236 237 234 234 234 234 233 234 237 234 238 229 238 237 240
172 186 210 208 28 95 20 347 162 74 52 240 161 270 262 316 289 277 276 298 278 266 252 216 233 243 251 256 252 244 267 294 0 131 130 119 102 94 102 112 103 95 86 79 71 56 69 76 81 77 70 63 58 58 61 53 52 53 40 42 34 30 23 17 358 345 338 333 330 315 300 293 295 289 286 278 275 261 252 247 248 244 239 237 238 236 235 236 235 235 237 237 238 232 233 239 238
130 208 198 87 140 108 176 231 28 145 208 245 179 221 245 208 272 279 219 239 253 269 262 223 265 259 251 245 245 229 232 102 80 88 85 103 113 114 102 81 82 86 88 83 69 54 51 53 65 83 68 67 47 51 55 51 54 58 49 44 41 35 29 13 11 358 350 349 343 339 333 332 331 322 317 311 304 294 287 271 262 261 256 248 242 241 238 238 237 239 239 239 239 235 239 240 238
207 200 148 169 179 220 213 175 231 168 231 260 263 208 240 200 236 125 323 226 232 232 257 284 267 244 236 242 247 182 136 116 108 115 119 122 124 114 109 102 80 71 67 72 69 60 59 53 51 65 74 71 69 55 64 56 53 59 60 63 69 63 53 47 23 10 9 6 352 346 339 330 328 334 330 326 319 313 306 297 284 278 271 264 257 252 246 245 239 244 242 244 242 236 240 243 240
22 118 176 193 186 229 198 207 262 212 241 249 247 170 244 202 238 193 241 221 229 223 249 241 239 238 237 239 201 163 141 138 142 142 147 143 133 122 118 113 102 91 83 71 78 83 75 80 87 82 79 76 68 60 59 64 54 68 58 57 46 43 40 42 27 27 20 12 349 344 335 334 329 321 322 320 318 315 313 310 305 295 288 280 273 265 254 251 247 246 247 245 246 237 242 246 246
193 189 174 227 222 266 69 274 215 202 210 231 273 261 240 238 191 197 203 218 208 203 208 220 227 232 230 203 176 165 152 152 157 158 162 159 147 137 122 124 107 86 80 77 86 85 84 79 70 64 71 57 54 41 49 46 51 49 54 49 37 34 29 24 30 39 39 19 359 345 338 326 319 327 327 325 321 316 314 312 311 307 301 297 290 283 271 259 255 254 251 250 252 245 246 249 249
179 179 194 189 189 215 216 240 206 216 199 215 204 248 265 268 203 196 202 221 219 223 207 207 220 216 200 186 179 161 154 159 159 173 173 167 159 142 131 97 92 95 87 81 64 77 65 60 58 53 58 47 40 28 27 23 34 47 53 46 42 40 32 25 29 28 27 15 4 354 337 336 338 323 334 325 323 323 319 316 313 311 309 307 303 297 293 279 269 265 262 256 254 252 251 254 251